This is the latest recevied weather packets stored in our database for station/object NR6G-12. If no packets are shown the sender has not sent any weather packets the latest 10 day(s).
| Time | Temp. | Humidity | Pressure | Rain* | Wind** | Luminosity | Snow |
|---|---|---|---|---|---|---|---|
| 1787883192 | 18.33° C | 71% | 1021.2 hPa | 0 mm | - | - | - |
| 1787882833 | 18.89° C | 71% | 1021.3 hPa | 0 mm | - | - | - |
| 1787882472 | 18.89° C | 70% | 1021.4 hPa | 0 mm | - | - | - |
| 1787882112 | 18.89° C | 69% | 1021.6 hPa | 0 mm | - | - | - |
| 1787881752 | 19.44° C | 69% | 1021.7 hPa | 0 mm | - | - | - |
| 1787881392 | 19.44° C | 68% | 1021.7 hPa | 0 mm | - | - | - |
| 1787881033 | 20° C | 67% | 1021.9 hPa | 0 mm | - | - | - |
| 1787880672 | 20° C | 64% | 1022.1 hPa | 0 mm | - | - | - |
| 1787880312 | 20° C | 62% | 1022.1 hPa | 0 mm | - | - | - |
| 1787879952 | 20° C | 61% | 1022.1 hPa | 0 mm | - | - | - |
| 1787879592 | 20.56° C | 62% | 1022 hPa | 0 mm | - | - | - |
| 1787879233 | 20.56° C | 59% | 1022.1 hPa | 0 mm | - | - | - |
| 1787878878 | 20.56° C | 64% | 1022.1 hPa | 0 mm | - | - | - |
| 1787878512 | 20.56° C | 59% | 1021.9 hPa | 0 mm | - | - | - |
| 1787878152 | 20.56° C | 59% | 1021.9 hPa | 0 mm | - | - | - |
| 1787877792 | 20.56° C | 57% | 1021.9 hPa | 0 mm | - | - | - |
| 1787877433 | 20.56° C | 59% | 1021.8 hPa | 0 mm | - | - | - |
| 1787877072 | 20.56° C | 60% | 1021.6 hPa | 0 mm | - | - | - |
| 1787876712 | 21.11° C | 60% | 1021.4 hPa | 0 mm | - | - | - |
| 1787876359 | 21.11° C | 56% | 1021.2 hPa | 0 mm | - | - | - |
| 1787875992 | 21.11° C | 59% | 1021.2 hPa | 0 mm | - | - | - |
| 1787875634 | 21.11° C | 58% | 1021.3 hPa | 0 mm | - | - | - |
| 1787875272 | 21.67° C | 57% | 1022 hPa | 0 mm | - | - | - |
| 1787874912 | 21.67° C | 57% | 1022.2 hPa | 0 mm | - | - | - |
| 1787874552 | 21.67° C | 57% | 1022.1 hPa | 0 mm | - | - | - |
* Rain latest hour (hover to see other rain measurements)
** Current wind speed in m/s (hover to see current wind gust speed)